Flag for Burundi Weather past 2 weeks in Muyinga, Burundi

70 °F

Passing clouds.

Feels Like: 70 °F
Forecast: 62 / 74 °F
Wind: No wind

Location: Kigali Airport

Current Time: Oct 9, 2015 at 4:28:34 AM

Latest Report: Oct 9, 2015 at 4:00 AM

Visibility: N/A

Pressure: 30.07 "Hg (24.54 "Hg at 1749m altitude)

Humidity: 73%

Dew point: 61 °F

Location of MuyingaLocation

Historic Weather in Muyinga — Graph


Muyinga temperature yesterday

Maximum temperature yesterday: 88 °F (at 3:00 PM)
Minimum temperature yesterday: 64 °F (at 4:00 AM)
Average temperature yesterday: 75 °F

Past Weeks' High & Low Weather Summary

High90 °F (Sep 29, 3:00 PM)100% (Sep 26, 5:30 AM)30.24 "Hg (Sep 26, 5:30 AM)
Low61 °F (Sep 29, 6:00 AM)29% (Oct 6, 4:30 PM)29.92 "Hg (Sep 30, 3:30 PM)
Average73 °F70%30.10 "Hg
* Reported Sep 24 3:00 AM — Oct 9 3:00 AM, Muyinga, Weather by CustomWeather, © 2015

Note: Actual official high and low records may vary slightly from our data, if they occured in-between our weather recording intervals... More about our weather records


Muyinga weather history for previous 24 hours

Time TempWeatherWind HumidityBarometerVisibility
3:00 AM
Fri, Oct 9
70 °FPartly cloudy.3 mph73%30.07 "HgN/A
2:30 AM70 °FPartly cloudy.3 mph73%30.07 "HgN/A
2:00 AM70 °FPartly cloudy.No wind73%30.07 "HgN/A
1:30 AM70 °FPassing clouds.No wind73%30.07 "HgN/A
1:00 AM70 °FPassing clouds.No wind73%30.07 "HgN/A
12:30 AM70 °FPassing clouds.No wind73%30.09 "HgN/A
12:00 AM70 °FPassing clouds.5 mph73%30.09 "HgN/A
11:30 PM
Thu, Oct 8
70 °FPassing clouds.No wind73%30.12 "HgN/A
11:00 PM70 °FPassing clouds.3 mph73%30.12 "HgN/A
10:30 PM72 °FPassing clouds.3 mph69%30.12 "HgN/A
10:00 PM72 °FPassing clouds.3 mph69%30.12 "HgN/A
9:30 PM72 °FPassing clouds.5 mph69%30.12 "HgN/A
9:00 PM72 °FPassing clouds.5 mph73%30.12 "HgN/A
8:30 PM72 °FPassing clouds.5 mph73%30.12 "HgN/A
8:00 PM72 °FPassing clouds.No wind73%30.12 "HgN/A
7:30 PM72 °FPassing clouds.5 mph73%30.09 "HgN/A
6:30 PM73 °FPassing clouds.14 mph69%30.07 "HgN/A
5:58 PM79 °FPassing clouds.17 mph54%30.07 "HgN/A
5:30 PM84 °FScattered clouds.10 mph40%30.04 "HgN/A
5:00 PM84 °FScattered clouds.9 mph37%30.04 "HgN/A
4:30 PM86 °FPartly sunny.8 mph38%30.01 "HgN/A
4:00 PM86 °FPartly sunny.8 mph38%30.01 "HgN/A
3:30 PM88 °FPartly sunny.12 mph38%30.01 "HgN/A
3:00 PM88 °FPartly sunny.12 mph38%30.01 "HgN/A
2:30 PM86 °FPartly sunny.9 mph38%30.04 "HgN/A
2:00 PM86 °FPartly sunny.9 mph38%30.04 "HgN/A
1:30 PM86 °FPartly sunny.12 mph38%30.07 "HgN/A
12:00 PM84 °FPartly sunny.9 mph40%30.12 "HgN/A
11:30 AM84 °FPartly sunny.9 mph40%30.12 "HgN/A
11:00 AM82 °FPartly sunny.12 mph42%30.15 "HgN/A
10:30 AM82 °FScattered clouds.12 mph42%30.18 "HgN/A
10:00 AM81 °FPassing clouds.12 mph48%30.18 "HgN/A
9:30 AM81 °FPassing clouds.6 mph51%30.18 "HgN/A
9:00 AM79 °FPassing clouds.6 mph54%30.18 "HgN/A
8:30 AM79 °FPassing clouds.5 mph54%30.18 "HgN/A
8:00 AM77 °FPassing clouds.No wind54%30.18 "HgN/A
7:30 AM73 °FPassing clouds.No wind57%30.15 "HgN/A
7:00 AM70 °FPassing clouds.No wind69%30.15 "HgN/A
6:30 AM66 °FPassing clouds.3 mph73%30.15 "HgN/A
5:30 AM64 °FPassing clouds.3 mph78%30.12 "HgN/A
5:00 AM64 °FPassing clouds.3 mph78%30.12 "HgN/A
4:30 AM64 °FPassing clouds.3 mph83%30.09 "HgN/A
4:00 AM64 °FPassing clouds.3 mph83%30.09 "HgN/A
Weather by CustomWeather, © 2015

See weather overviewHow to use our weather pages